Flag for Bahamas Weather past 2 weeks in Nassau, Bahamas

Now
57 °F

Scattered clouds.


Feels Like: 57 °F
Forecast: 66 / 77 °F
Wind: No wind

Location: Nassau Airport

Current Time: Dec 18, 2014 at 7:55:45 AM

Latest Report: Dec 18, 2014 at 7:00 AM


Visibility: N/A

Pressure: 30.15 "Hg

Humidity: 100%

Dew point: 57 °F

Location of NassauLocation

Historic Weather in Nassau — Graph

°F

Nassau temperature yesterday

Maximum temperature yesterday: 77 °F (at 10:00 AM)
Minimum temperature yesterday: 61 °F (at 7:00 AM)
Average temperature yesterday: 70 °F

Past Weeks' High & Low Weather Summary

 TemperatureHumidityPressure
High81 °F (Dec 3, 1:00 PM)100% (Dec 18, 7:00 AM)30.22 "Hg (Dec 18, 7:00 AM)
Low57 °F (Dec 18, 7:00 AM)36% (Dec 14, 12:00 PM)29.90 "Hg (Dec 9, 4:00 PM)
Average72 °F69%30.08 "Hg
* Reported Dec 3 7:00 AM — Dec 18 7:00 AM, Nassau, Weather by CustomWeather, © 2014

Note: Actual official high and low records may vary slightly from our data, if they occured in-between our weather recording intervals... More about our weather records

Advertising

Nassau weather history for previous 24 hours

 ConditionsComfort  
Time TempWeatherWind HumidityBarometerVisibility
7:00 AM
Dec 18
57 °FScattered clouds.No wind100%30.15 "HgN/A
6:00 AM59 °FClear.No wind88%30.15 "Hg10 mi
4:00 AM59 °FClear.No wind94%30.14 "Hg10 mi
2:00 AM63 °FClear.No wind68%30.16 "Hg10 mi
1:00 AM61 °FClear.No wind94%30.15 "Hg10 mi
12:00 AM63 °FPassing clouds.No wind83%30.16 "HgN/A
11:00 PM
Dec 17
64 °FClear.No wind83%30.17 "Hg10 mi
10:00 PM64 °FClear.No wind83%30.19 "Hg10 mi
9:00 PM66 °FClear.No wind68%30.17 "Hg10 mi
8:00 PM68 °FClear.No wind69%30.16 "Hg10 mi
7:00 PM68 °FClear.No wind78%30.15 "Hg10 mi
6:00 PM72 °FPassing clouds.3 mph53%30.14 "HgN/A
5:00 PM73 °FPassing clouds.No wind53%30.13 "HgN/A
4:00 PM77 °FPassing clouds.9 mph65%30.12 "HgN/A
3:00 PM75 °FPassing clouds.7 mph50%30.12 "HgN/A
2:00 PM75 °FPassing clouds.7 mph50%30.14 "HgN/A
1:00 PM75 °FPassing clouds.9 mph50%30.15 "HgN/A
12:00 PM75 °FPassing clouds.5 mph50%30.17 "HgN/A
11:00 AM75 °FPassing clouds.5 mph50%30.19 "HgN/A
10:00 AM77 °FPassing clouds.5 mph65%30.21 "HgN/A
8:00 AM68 °FPassing clouds.No wind73%30.18 "HgN/A
7:00 AM61 °FPassing clouds.No wind94%30.17 "HgN/A
Weather by CustomWeather, © 2014

See weather overviewHow to use our weather pages